Location: Pasadena, ca
(34.1243°N, 118.1037°W)
Time: 11:16:56
(UTC-08:00)

ISS - Pass Details

Date: 13 November 2017
Orbit: 402 x 407 km, 51.6° (Epoch: 22 November)

Event Time Altitude Azimuth Distance (km) Brightness Sun altitude
Exits shadow 05:18:33 - 348° (NNW) 1,781 -0.8 -13.7°
Reaches altitude 10° 05:20:34 10° 17° (NNE) 1,453 -1.0 -13.3°
Maximum altitude 05:21:03 10° 26° (NNE) 1,438 -0.9 -13.2°
Drops below altitude 10° 05:21:32 10° 34° (NE) 1,452 -0.7 -13.1°
Sets 05:25:22 0° 81° (E) 2,309 1.4 -12.3°
